アトラス彗星

C/2019 N1 ( ATLAS )

English version
Home page
Updated on November 3, 2020

---------------------------------------------------------------------

・ プロフィール

発見日 2019年7月5日
発見光度 18.6等
発見者 Asteroid Terrestrial-Impact Last Alert System (ATLAS) search program

・ 写真集

・ 軌道要素

Epoch 2020 Dec. 17.0 TT = JDT 2459200.5
T 2020 Dec. 1.80600 TT                                  Rudenko
q   1.7046094            (2000.0)            P               Q
z  +0.0000485      Peri.  193.44648     -0.93823223     +0.25612171
 +/-0.0000011      Node    13.57323     -0.14505799     +0.31926273
e   0.9999174      Incl.   82.42756     -0.31413129     -0.91239957
From 1525 observations 2019 June 10-2020 Sept. 8, mean residual 0".6.

・ 星図

・ 光度変化

        m1 = 9.0 + 5 logΔ + 7.0 log r

---------------------------------------------------------------------

軌道要素はM.P.E.C. 2020-U96に掲載されたものです。
星図はステラナビゲータ Ver.10 (アストロアーツ) で作成したものです。
光度グラフはComet for Windowsで作成したものです。

---------------------------------------------------------------------

Copyright(C) Seiichi Yoshida (comet@aerith.net). All rights reserved.